Terug naar catalogus

STARLINK-3273

ActiefCommunicatieVLEO
NORAD 50191·PAYLOAD·🇺🇸 United States

Gelanceerd Dec 18, 2021 vanaf Vandenberg Space Force Base

Loading…

Volgende Passages (komende 24 uur)

TLE

VersSource: CelesTrak SupGP

Epoch: Sep 15, 2026, 02:11 UTC

1 50191C 21125AM  26258.09145833  .00033555  00000+0  99148-3 0  2585
2 50191  53.1570 116.6496 0001371  82.2997  94.3386 15.34371031    13

Volg STARLINK-3273 in realtime met AllMySat

Download on the App Store